Time,TemperatureF,DewpointF,PressureIn,WindDirection,WindDirectionDegrees,WindSpeedMPH,WindSpeedGustMPH,Humidity,HourlyPrecipIn,Conditions,Clouds,dailyrainin,SolarRadiationWatts/m^2,SoftwareType,DateUTC
2013-07-23 00:00:00,64.2,59.3,25.96,ESE,111,0.0,0.0,84,0.00,,,0.00,0,Wunderground v.1.15,2013-07-23 06:00:00,
2013-07-23 00:05:00,64.2,59.6,25.96,ESE,111,0.0,0.0,85,0.00,,,0.00,0,Wunderground v.1.15,2013-07-23 06:05:00,
2013-07-23 00:10:00,64.4,59.5,25.96,NE,34,0.0,0.0,84,0.00,,,0.00,0,Wunderground v.1.15,2013-07-23 06:10:00,
2013-07-23 00:15:00,64.4,59.8,25.96,WNW,294,0.0,0.0,85,0.00,,,0.00,0,Wunderground v.1.15,2013-07-23 06:15:00,
2013-07-23 00:25:00,64.2,59.6,25.96,ESE,114,0.0,0.0,85,0.00,,,0.00,0,Wunderground v.1.15,2013-07-23 06:25:00,
2013-07-23 00:30:00,64.2,59.6,25.96,ESE,116,1.0,6.0,85,0.00,,,0.00,0,Wunderground v.1.15,2013-07-23 06:30:00,
2013-07-23 00:35:00,64.4,59.5,25.96,East,91,1.0,6.0,84,0.00,,,0.00,0,Wunderground v.1.15,2013-07-23 06:35:00,
2013-07-23 00:40:00,64.4,59.8,25.96,North,355,0.0,1.0,85,0.00,,,0.00,0,Wunderground v.1.15,2013-07-23 06:40:00,
2013-07-23 00:50:00,64.7,60.1,25.96,North,9,1.0,1.0,85,0.00,,,0.00,0,Wunderground v.1.15,2013-07-23 06:50:00,
2013-07-23 00:55:00,64.9,60.3,25.96,NE,34,3.0,3.0,85,0.00,,,0.00,0,Wunderground v.1.15,2013-07-23 06:55:00,
2013-07-23 01:00:00,64.9,60.3,25.95,North,355,2.0,2.0,85,0.00,,,0.00,0,Wunderground v.1.15,2013-07-23 07:00:00,
2013-07-23 01:10:00,65.1,60.5,25.95,SW,217,3.0,3.0,85,0.00,,,0.00,0,Wunderground v.1.15,2013-07-23 07:10:00,
2013-07-23 02:25:00,65.2,60.6,25.93,East,82,2.0,2.0,85,0.00,,,0.00,0,Wunderground v.1.15,2013-07-23 08:25:00,
2013-07-23 02:30:00,65.4,60.8,25.93,NNE,28,3.0,3.0,85,0.00,,,0.00,0,Wunderground v.1.15,2013-07-23 08:30:00,
2013-07-23 02:40:00,65.2,60.9,25.93,ESE,104,2.0,3.0,86,0.00,,,0.00,0,Wunderground v.1.15,2013-07-23 08:40:00,
2013-07-23 02:50:00,65.1,60.8,25.93,East,92,1.0,2.0,86,0.00,,,0.00,0,Wunderground v.1.15,2013-07-23 08:50:00,
2013-07-23 02:55:00,64.9,60.6,25.93,SE,145,1.0,1.0,86,0.00,,,0.00,0,Wunderground v.1.15,2013-07-23 08:55:00,
2013-07-23 03:05:00,64.7,60.4,25.93,ESE,110,1.0,2.0,86,0.00,,,0.00,0,Wunderground v.1.15,2013-07-23 09:05:00,
2013-07-23 03:15:00,64.7,60.4,25.93,NE,52,3.0,3.0,86,0.00,,,0.00,0,Wunderground v.1.15,2013-07-23 09:15:00,
2013-07-23 03:20:00,64.7,60.4,25.93,East,88,2.0,2.0,86,0.00,,,0.00,0,Wunderground v.1.15,2013-07-23 09:20:00,
2013-07-23 03:30:00,64.7,60.4,25.93,NE,39,1.0,1.0,86,0.00,,,0.00,0,Wunderground v.1.15,2013-07-23 09:30:00,
2013-07-23 03:40:00,64.9,60.6,25.93,East,92,2.0,2.0,86,0.00,,,0.00,0,Wunderground v.1.15,2013-07-23 09:40:00,
2013-07-23 04:00:00,64.9,60.6,25.93,SSE,161,2.0,2.0,86,0.00,,,0.00,0,Wunderground v.1.15,2013-07-23 10:00:00,
2013-07-23 04:10:00,64.9,60.6,25.93,East,93,3.0,4.0,86,0.00,,,0.00,0,Wunderground v.1.15,2013-07-23 10:10:00,
2013-07-23 04:15:00,64.9,60.6,25.93,ESE,121,3.0,5.0,86,0.00,,,0.00,0,Wunderground v.1.15,2013-07-23 10:15:00,
2013-07-23 04:25:00,65.1,60.5,25.93,ESE,106,3.0,3.0,85,0.00,,,0.00,0,Wunderground v.1.15,2013-07-23 10:25:00,
2013-07-23 04:35:00,65.2,60.6,25.94,WSW,242,2.0,3.0,85,0.00,,,0.00,0,Wunderground v.1.15,2013-07-23 10:35:00,
2013-07-23 04:45:00,65.4,60.4,25.94,NW,311,1.0,3.0,84,0.00,,,0.00,0,Wunderground v.1.15,2013-07-23 10:45:00,
2013-07-23 04:55:00,65.1,60.5,25.94,ESE,117,1.0,1.0,85,0.00,,,0.00,0,Wunderground v.1.15,2013-07-23 10:55:00,
2013-07-23 05:05:00,64.9,60.3,25.94,SE,141,2.0,4.0,85,0.00,,,0.00,0,Wunderground v.1.15,2013-07-23 11:05:00,
2013-07-23 05:10:00,64.9,60.6,25.95,SE,126,2.0,4.0,86,0.00,,,0.00,0,Wunderground v.1.15,2013-07-23 11:10:00,
2013-07-23 05:20:00,65.1,60.5,25.94,NNW,334,1.0,1.0,85,0.00,,,0.00,0,Wunderground v.1.15,2013-07-23 11:20:00,
2013-07-23 05:30:00,65.4,60.8,25.95,ENE,70,2.0,2.0,85,0.00,,,0.00,0,Wunderground v.1.15,2013-07-23 11:30:00,
2013-07-23 05:40:00,65.5,60.9,25.95,East,101,1.0,1.0,85,0.00,,,0.00,7,Wunderground v.1.15,2013-07-23 11:40:00,
2013-07-23 05:50:00,65.4,60.8,25.95,ENE,69,1.0,1.0,85,0.00,,,0.00,12,Wunderground v.1.15,2013-07-23 11:50:00,
2013-07-23 06:00:00,65.2,60.6,25.96,SSE,163,1.0,1.0,85,0.00,,,0.00,18,Wunderground v.1.15,2013-07-23 12:00:00,
2013-07-23 06:10:00,65.1,60.1,25.96,ENE,68,1.0,1.0,84,0.00,,,0.00,26,Wunderground v.1.15,2013-07-23 12:10:00,
2013-07-23 06:20:00,64.9,59.9,25.96,ENE,68,1.0,1.0,84,0.00,,,0.00,39,Wunderground v.1.15,2013-07-23 12:20:00,
2013-07-23 06:25:00,64.7,59.8,25.96,ENE,68,0.0,1.0,84,0.00,,,0.00,47,Wunderground v.1.15,2013-07-23 12:25:00,
2013-07-23 06:35:00,65.2,60.6,25.97,SE,137,2.0,2.0,85,0.00,,,0.00,47,Wunderground v.1.15,2013-07-23 12:35:00,
2013-07-23 06:45:00,66.0,61.4,25.97,ESE,123,1.0,2.0,85,0.00,,,0.00,63,Wunderground v.1.15,2013-07-23 12:45:00,
2013-07-23 06:55:00,66.3,61.3,25.97,East,86,1.0,3.0,84,0.00,,,0.00,93,Wunderground v.1.15,2013-07-23 12:55:00,
2013-07-23 07:00:00,66.5,61.2,25.98,SE,139,2.0,2.0,83,0.00,,,0.00,114,Wunderground v.1.15,2013-07-23 13:00:00,
2013-07-23 07:10:00,67.0,61.3,25.98,NW,322,2.0,2.0,82,0.00,,,0.00,125,Wunderground v.1.15,2013-07-23 13:10:00,
2013-07-23 07:20:00,67.3,61.3,25.98,East,92,0.0,0.0,81,0.00,,,0.00,144,Wunderground v.1.15,2013-07-23 13:20:00,
2013-07-23 07:30:00,67.7,61.7,25.98,North,5,1.0,2.0,81,0.00,,,0.00,192,Wunderground v.1.15,2013-07-23 13:30:00,
2013-07-23 07:40:00,68.2,61.8,25.98,North,355,1.0,1.0,80,0.00,,,0.00,241,Wunderground v.1.15,2013-07-23 13:40:00,
2013-07-23 07:45:00,68.5,61.4,25.98,North,355,0.0,1.0,78,0.00,,,0.00,221,Wunderground v.1.15,2013-07-23 13:45:00,
2013-07-23 07:55:00,69.5,61.6,25.98,ESE,105,0.0,1.0,76,0.00,,,0.00,248,Wunderground v.1.15,2013-07-23 13:55:00,
2013-07-23 08:05:00,69.7,61.8,25.98,NNE,30,2.0,3.0,76,0.00,,,0.00,227,Wunderground v.1.15,2013-07-23 14:05:00,
2013-07-23 08:10:00,69.5,61.6,25.98,East,97,3.0,4.0,76,0.00,,,0.00,211,Wunderground v.1.15,2013-07-23 14:10:00,
2013-07-23 08:20:00,69.3,62.1,25.98,NW,325,2.0,2.0,78,0.00,,,0.00,179,Wunderground v.1.15,2013-07-23 14:20:00,
2013-07-23 08:30:00,69.5,62.0,25.98,West,277,2.0,3.0,77,0.00,,,0.00,288,Wunderground v.1.15,2013-07-23 14:30:00,
2013-07-23 08:40:00,70.2,62.3,25.97,NNE,22,3.0,3.0,76,0.00,,,0.00,345,Wunderground v.1.15,2013-07-23 14:40:00,
2013-07-23 08:45:00,70.3,62.0,25.98,East,94,3.0,4.0,75,0.00,,,0.00,334,Wunderground v.1.15,2013-07-23 14:45:00,
2013-07-23 08:50:00,70.5,62.6,25.98,SSE,150,3.0,3.0,76,0.00,,,0.00,227,Wunderground v.1.15,2013-07-23 14:50:00,
2013-07-23 09:00:00,70.0,62.5,25.97,NNE,12,4.0,4.0,77,0.00,,,0.00,308,Wunderground v.1.15,2013-07-23 15:00:00,
2013-07-23 09:05:00,70.2,62.3,25.97,NNE,20,3.0,4.0,76,0.00,,,0.00,313,Wunderground v.1.15,2013-07-23 15:05:00,
2013-07-23 09:15:00,70.2,62.6,25.97,NNE,18,4.0,10.0,77,0.00,,,0.00,320,Wunderground v.1.15,2013-07-23 15:15:00,
2013-07-23 09:25:00,70.7,62.8,25.97,North,355,3.0,9.0,76,0.00,,,0.00,431,Wunderground v.1.15,2013-07-23 15:25:00,
2013-07-23 09:30:00,70.8,62.9,25.97,NW,322,4.0,4.0,76,0.00,,,0.00,499,Wunderground v.1.15,2013-07-23 15:30:00,
2013-07-23 09:40:00,71.7,63.0,25.97,East,89,3.0,3.0,74,0.00,,,0.00,656,Wunderground v.1.15,2013-07-23 15:40:00,
2013-07-23 09:50:00,72.7,62.8,25.96,NNE,15,3.0,5.0,71,0.00,,,0.00,766,Wunderground v.1.15,2013-07-23 15:50:00,
2013-07-23 09:55:00,73.8,63.4,25.96,NE,55,3.0,5.0,70,0.00,,,0.00,768,Wunderground v.1.15,2013-07-23 15:55:00,
2013-07-23 10:05:00,74.8,63.5,25.95,ESE,123,3.0,4.0,68,0.00,,,0.00,881,Wunderground v.1.15,2013-07-23 16:05:00,
2013-07-23 10:10:00,74.6,62.9,25.95,NE,39,4.0,7.0,67,0.00,,,0.00,838,Wunderground v.1.15,2013-07-23 16:10:00,
2013-07-23 10:20:00,74.8,62.7,25.95,NNE,28,4.0,8.0,66,0.00,,,0.00,793,Wunderground v.1.15,2013-07-23 16:20:00,
2013-07-23 10:30:00,75.3,62.7,25.94,East,91,4.0,4.0,65,0.00,,,0.00,1023,Wunderground v.1.15,2013-07-23 16:30:00,
2013-07-23 10:35:00,76.2,62.2,25.94,West,271,4.0,4.0,62,0.00,,,0.00,1011,Wunderground v.1.15,2013-07-23 16:35:00,
2013-07-23 10:40:00,77.1,63.1,25.94,ENE,71,4.0,4.0,62,0.00,,,0.00,1007,Wunderground v.1.15,2013-07-23 16:40:00,
2013-07-23 10:50:00,78.4,63.4,25.94,West,271,4.0,4.0,60,0.00,,,0.00,974,Wunderground v.1.15,2013-07-23 16:50:00,
2013-07-23 10:55:00,78.5,62.5,25.94,NNE,30,4.0,8.0,58,0.00,,,0.00,1039,Wunderground v.1.15,2013-07-23 16:55:00,
2013-07-23 11:05:00,77.5,63.0,25.94,NNW,331,4.0,8.0,61,0.00,,,0.00,468,Wunderground v.1.15,2013-07-23 17:05:00,
2013-07-23 11:15:00,75.5,62.5,25.95,NE,34,6.0,10.0,64,0.00,,,0.00,717,Wunderground v.1.15,2013-07-23 17:15:00,
2013-07-23 11:25:00,75.2,62.6,25.95,NNE,20,6.0,6.0,65,0.00,,,0.00,640,Wunderground v.1.15,2013-07-23 17:25:00,
2013-07-23 11:30:00,75.2,63.1,25.95,North,360,5.0,11.0,66,0.00,,,0.00,281,Wunderground v.1.15,2013-07-23 17:30:00,
2013-07-23 11:40:00,73.6,63.2,25.95,East,92,5.0,5.0,70,0.00,,,0.00,116,Wunderground v.1.15,2013-07-23 17:40:00,
2013-07-23 11:50:00,72.2,62.7,25.95,ESE,103,6.0,6.0,72,0.00,,,0.00,91,Wunderground v.1.15,2013-07-23 17:50:00,
2013-07-23 12:00:00,71.2,62.9,25.95,WNW,301,6.0,9.0,75,0.00,,,0.00,142,Wunderground v.1.15,2013-07-23 18:00:00,
2013-07-23 12:05:00,71.0,63.1,25.94,East,92,5.0,9.0,76,0.00,,,0.00,144,Wunderground v.1.15,2013-07-23 18:05:00,
2013-07-23 12:15:00,71.4,62.7,25.94,ESE,105,5.0,7.0,74,0.00,,,0.00,223,Wunderground v.1.15,2013-07-23 18:15:00,
2013-07-23 12:25:00,71.0,62.7,25.94,NNW,333,5.0,8.0,75,0.00,,,0.00,366,Wunderground v.1.15,2013-07-23 18:25:00,
2013-07-23 12:35:00,71.9,63.2,25.93,NW,315,5.0,6.0,74,0.00,,,0.00,529,Wunderground v.1.15,2013-07-23 18:35:00,
2013-07-23 12:45:00,72.6,63.1,25.93,NE,54,5.0,9.0,72,0.00,,,0.00,388,Wunderground v.1.15,2013-07-23 18:45:00,
2013-07-23 12:50:00,72.9,63.3,25.92,ENE,60,5.0,7.0,72,0.00,,,0.00,601,Wunderground v.1.15,2013-07-23 18:50:00,
2013-07-23 13:05:00,72.7,62.8,25.92,SSE,148,6.0,14.0,71,0.00,,,0.00,519,Wunderground v.1.15,2013-07-23 19:05:00,
2013-07-23 13:15:00,72.2,63.1,25.92,NNE,19,5.0,6.0,73,0.00,,,0.00,670,Wunderground v.1.15,2013-07-23 19:15:00,
2013-07-23 13:25:00,72.2,63.1,25.91,WNW,296,6.0,9.0,73,0.00,,,0.00,534,Wunderground v.1.15,2013-07-23 19:25:00,
2013-07-23 13:30:00,71.9,62.8,25.91,NE,34,6.0,12.0,73,0.00,,,0.00,893,Wunderground v.1.15,2013-07-23 19:30:00,
2013-07-23 13:40:00,72.7,63.1,25.91,North,355,6.0,6.0,72,0.00,,,0.00,861,Wunderground v.1.15,2013-07-23 19:40:00,
2013-07-23 13:50:00,73.1,63.1,25.91,West,278,5.0,6.0,71,0.00,,,0.00,390,Wunderground v.1.15,2013-07-23 19:50:00,
2013-07-23 14:00:00,72.7,62.8,25.91,WSW,246,7.0,7.0,71,0.00,,,0.00,278,Wunderground v.1.15,2013-07-23 20:00:00,
2013-07-23 14:20:00,71.9,62.8,25.90,NNE,12,5.0,10.0,73,0.00,,,0.00,199,Wunderground v.1.15,2013-07-23 20:20:00,
2013-07-23 14:30:00,71.7,63.0,25.91,North,360,5.0,5.0,74,0.00,,,0.00,178,Wunderground v.1.15,2013-07-23 20:30:00,
2013-07-23 14:35:00,71.7,63.0,25.91,NNE,28,4.0,8.0,74,0.00,,,0.00,127,Wunderground v.1.15,2013-07-23 20:35:00,
2013-07-23 14:45:00,71.7,63.4,25.90,ENE,65,3.0,4.0,75,0.00,,,0.00,218,Wunderground v.1.15,2013-07-23 20:45:00,
2013-07-23 14:55:00,72.0,62.9,25.89,NNW,341,4.0,5.0,73,0.00,,,0.00,329,Wunderground v.1.15,2013-07-23 20:55:00,
2013-07-23 15:05:00,72.4,63.3,25.89,NNW,340,4.0,6.0,73,0.00,,,0.00,274,Wunderground v.1.15,2013-07-23 21:05:00,
2013-07-23 15:15:00,72.0,63.3,25.89,ESE,122,5.0,7.0,74,0.00,,,0.00,258,Wunderground v.1.15,2013-07-23 21:15:00,
2013-07-23 15:25:00,71.7,63.0,25.89,NNW,340,6.0,6.0,74,0.00,,,0.00,158,Wunderground v.1.15,2013-07-23 21:25:00,
2013-07-23 15:35:00,71.4,63.1,25.90,East,87,4.0,7.0,75,0.00,,,0.00,118,Wunderground v.1.15,2013-07-23 21:35:00,
2013-07-23 15:50:00,71.2,62.9,25.90,NE,41,4.0,4.0,75,0.00,,,0.00,142,Wunderground v.1.15,2013-07-23 21:50:00,
2013-07-23 16:00:00,71.2,62.9,25.90,SE,146,4.0,5.0,75,0.00,,,0.00,107,Wunderground v.1.15,2013-07-23 22:00:00,
2013-07-23 16:10:00,71.0,62.7,25.90,ENE,71,3.0,4.0,75,0.00,,,0.00,83,Wunderground v.1.15,2013-07-23 22:10:00,
2013-07-23 16:25:00,71.2,63.2,25.90,ESE,103,3.0,4.0,76,0.00,,,0.00,109,Wunderground v.1.15,2013-07-23 22:25:00,
2013-07-23 16:30:00,71.2,63.2,25.90,East,84,3.0,3.0,76,0.00,,,0.00,100,Wunderground v.1.15,2013-07-23 22:30:00,
2013-07-23 16:40:00,70.8,62.9,25.90,SE,130,4.0,5.0,76,0.00,,,0.00,70,Wunderground v.1.15,2013-07-23 22:40:00,
2013-07-23 16:55:00,70.5,62.9,25.89,SSW,207,2.0,3.0,77,0.00,,,0.00,46,Wunderground v.1.15,2013-07-23 22:55:00,
2013-07-23 17:10:00,69.7,63.3,25.90,North,5,5.0,5.0,80,0.00,,,0.00,14,Wunderground v.1.15,2013-07-23 23:10:00,
2013-07-23 17:15:00,69.5,63.1,25.90,ESE,111,4.0,5.0,80,0.00,,,0.00,11,Wunderground v.1.15,2013-07-23 23:15:00,
2013-07-23 17:25:00,69.5,63.1,25.89,SSE,150,3.0,3.0,80,0.00,,,0.00,11,Wunderground v.1.15,2013-07-23 23:25:00,
2013-07-23 17:35:00,69.5,62.7,25.89,WNW,301,3.0,3.0,79,0.00,,,0.00,11,Wunderground v.1.15,2013-07-23 23:35:00,
2013-07-23 17:40:00,69.5,62.7,25.89,NNE,28,2.0,4.0,79,0.00,,,0.00,7,Wunderground v.1.15,2013-07-23 23:40:00,
2013-07-23 17:50:00,69.5,62.7,25.90,NE,46,4.0,4.0,79,0.00,,,0.00,0,Wunderground v.1.15,2013-07-23 23:50:00,
2013-07-23 18:00:00,69.7,62.2,25.90,NW,321,3.0,3.0,77,0.00,,,0.00,0,Wunderground v.1.15,2013-07-24 00:00:00,
2013-07-23 18:10:00,69.5,62.7,25.90,WNW,295,4.0,4.0,79,0.00,,,0.00,0,Wunderground v.1.15,2013-07-24 00:10:00,
2013-07-23 18:15:00,69.5,62.7,25.90,ESE,117,4.0,4.0,79,0.00,,,0.00,0,Wunderground v.1.15,2013-07-24 00:15:00,
2013-07-23 18:20:00,69.5,62.7,25.90,North,360,3.0,7.0,79,0.00,,,0.00,0,Wunderground v.1.15,2013-07-24 00:20:00,
2013-07-23 18:30:00,69.7,62.5,25.90,ENE,75,4.0,4.0,78,0.00,,,0.00,0,Wunderground v.1.15,2013-07-24 00:30:00,
2013-07-23 18:40:00,69.7,62.5,25.91,ESE,110,4.0,4.0,78,0.00,,,0.00,0,Wunderground v.1.15,2013-07-24 00:40:00,
2013-07-23 18:45:00,69.8,61.9,25.91,NE,47,3.0,4.0,76,0.00,,,0.00,0,Wunderground v.1.15,2013-07-24 00:45:00,
2013-07-23 18:55:00,70.0,62.1,25.91,ESE,108,3.0,4.0,76,0.00,,,0.00,0,Wunderground v.1.15,2013-07-24 00:55:00,
2013-07-23 19:05:00,70.0,61.7,25.91,East,90,2.0,2.0,75,0.00,,,0.00,0,Wunderground v.1.15,2013-07-24 01:05:00,
2013-07-23 19:15:00,70.5,61.0,25.91,ESE,117,4.0,10.0,72,0.00,,,0.00,0,Wunderground v.1.15,2013-07-24 01:15:00,
2013-07-23 19:20:00,70.7,60.8,25.91,ESE,112,4.0,5.0,71,0.00,,,0.00,0,Wunderground v.1.15,2013-07-24 01:20:00,
2013-07-23 19:35:00,70.5,61.0,25.91,SE,134,3.0,6.0,72,0.00,,,0.00,0,Wunderground v.1.15,2013-07-24 01:35:00,
2013-07-23 19:45:00,70.0,61.3,25.91,NE,46,3.0,5.0,74,0.00,,,0.00,0,Wunderground v.1.15,2013-07-24 01:45:00,
2013-07-23 19:55:00,69.5,61.2,25.91,NE,49,3.0,5.0,75,0.00,,,0.00,0,Wunderground v.1.15,2013-07-24 01:55:00,
2013-07-23 20:05:00,69.2,61.3,25.92,ESE,115,5.0,7.0,76,0.00,,,0.00,0,Wunderground v.1.15,2013-07-24 02:05:00,
2013-07-23 20:15:00,69.0,61.1,25.92,ENE,76,3.0,5.0,76,0.00,,,0.00,0,Wunderground v.1.15,2013-07-24 02:15:00,
2013-07-23 20:25:00,69.0,60.7,25.92,WNW,303,2.0,3.0,75,0.00,,,0.00,0,Wunderground v.1.15,2013-07-24 02:25:00,
2013-07-23 20:35:00,69.0,60.7,25.92,North,5,3.0,3.0,75,0.00,,,0.00,0,Wunderground v.1.15,2013-07-24 02:35:00,
2013-07-23 20:45:00,68.7,61.2,25.92,North,5,4.0,6.0,77,0.00,,,0.00,0,Wunderground v.1.15,2013-07-24 02:45:00,
2013-07-23 20:50:00,68.5,61.4,25.92,East,92,4.0,4.0,78,0.00,,,0.00,0,Wunderground v.1.15,2013-07-24 02:50:00,
2013-07-23 21:10:00,68.2,61.1,25.92,North,5,2.0,2.0,78,0.00,,,0.00,0,Wunderground v.1.15,2013-07-24 03:10:00,
2013-07-23 21:15:00,68.2,61.1,25.92,WNW,290,2.0,3.0,78,0.00,,,0.00,0,Wunderground v.1.15,2013-07-24 03:15:00,
2013-07-23 21:25:00,68.0,60.9,25.92,West,279,2.0,5.0,78,0.00,,,0.00,0,Wunderground v.1.15,2013-07-24 03:25:00,
2013-07-23 21:35:00,67.7,61.0,25.92,South,183,0.0,0.0,79,0.00,,,0.00,0,Wunderground v.1.15,2013-07-24 03:35:00,
2013-07-23 21:40:00,67.5,61.1,25.92,South,184,0.0,2.0,80,0.00,,,0.00,0,Wunderground v.1.15,2013-07-24 03:40:00,
2013-07-23 21:45:00,67.3,60.9,25.92,WNW,288,0.0,3.0,80,0.00,,,0.00,0,Wunderground v.1.15,2013-07-24 03:45:00,
2013-07-23 21:55:00,67.3,60.6,25.93,WSW,244,2.0,2.0,79,0.00,,,0.00,0,Wunderground v.1.15,2013-07-24 03:55:00,
2013-07-23 22:05:00,67.5,61.1,25.92,West,281,1.0,6.0,80,0.00,,,0.00,0,Wunderground v.1.15,2013-07-24 04:05:00,
2013-07-23 22:10:00,67.3,61.3,25.93,West,264,1.0,1.0,81,0.00,,,0.00,0,Wunderground v.1.15,2013-07-24 04:10:00,
2013-07-23 22:15:00,67.3,61.3,25.93,ENE,71,1.0,1.0,81,0.00,,,0.00,0,Wunderground v.1.15,2013-07-24 04:15:00,
2013-07-23 22:20:00,67.2,60.8,25.93,North,355,1.0,1.0,80,0.00,,,0.00,0,Wunderground v.1.15,2013-07-24 04:20:00,
2013-07-23 22:30:00,67.5,61.1,25.93,North,360,2.0,2.0,80,0.00,,,0.00,0,Wunderground v.1.15,2013-07-24 04:30:00,
2013-07-23 22:40:00,67.7,60.6,25.93,NE,36,3.0,3.0,78,0.00,,,0.00,0,Wunderground v.1.15,2013-07-24 04:40:00,
2013-07-23 22:50:00,67.7,60.2,25.94,East,93,2.0,2.0,77,0.00,,,0.00,0,Wunderground v.1.15,2013-07-24 04:50:00,
2013-07-23 22:55:00,67.7,60.6,25.94,East,91,1.0,2.0,78,0.00,,,0.00,0,Wunderground v.1.15,2013-07-24 04:55:00,
2013-07-23 23:00:00,67.7,61.0,25.93,East,79,1.0,1.0,79,0.00,,,0.00,0,Wunderground v.1.15,2013-07-24 05:00:00,
2013-07-23 23:05:00,67.7,61.0,25.93,NE,40,1.0,1.0,79,0.00,,,0.00,0,Wunderground v.1.15,2013-07-24 05:05:00,
2013-07-23 23:15:00,67.8,61.0,25.93,ESE,103,2.0,5.0,79,0.00,,,0.00,0,Wunderground v.1.15,2013-07-24 05:15:00,
2013-07-23 23:25:00,68.0,61.2,25.93,SE,127,2.0,2.0,79,0.00,,,0.00,0,Wunderground v.1.15,2013-07-24 05:25:00,
2013-07-23 23:35:00,67.8,61.4,25.93,SE,128,0.0,1.0,80,0.00,,,0.00,0,Wunderground v.1.15,2013-07-24 05:35:00,
2013-07-23 23:40:00,67.5,61.1,25.92,SE,128,0.0,0.0,80,0.00,,,0.00,0,Wunderground v.1.15,2013-07-24 05:40:00,
2013-07-23 23:50:00,67.3,61.3,25.92,SE,128,0.0,0.0,81,0.00,,,0.00,0,Wunderground v.1.15,2013-07-24 05:50:00,